User: anonymous   Login
Location: C�mpuri de-Sus
(45.9500°N, 22.5500°E)
Time: 12:39:25
(UTC+00:00)
Language:

Cosmos 1758 - Orbit

View from above orbital plane
View from above orbital plane
View from above satellite
View from above satellite

Ground track
Ground track

The orbit data is extracted from the following two-line orbital elements,

1 16791U 86046A   22025.90384492  .00000790  00000-0  52574-4 0  9991
2 16791  82.4689 190.2196 0017819 112.8467 247.4644 15.05624525938631
Epoch (UTC): 25 January 2022 21:41:32
Eccentricity: 0.0017819
inclination: 82.4689°
perigee height: 537 km
apogee height: 562 km
right ascension of ascending node: 190.2196°
argument of perigee: 112.8467°
revolutions per day: 15.05624525
mean anomaly at epoch: 247.4644°
orbit number at epoch: 93863

The dashed part of the orbit path shows where the satellite is in the earth's shadow,  

DLR